[[{"header":{"parameterUnit":"m.s-1","parameterCategory":1,"la1":30.2991,"la2":30.254,"lo1":-89.0895,"lo2":-89.0444,"dy":0.0017,"dx":0.0017,"nx":28,"ny":28,"refTime":"2026-01-02T09:00:00:Z","depth":0,"parameterNumber":2,"parameterNumberName":"U-component_of_WINDS"},"data":[0,0,0,0,0,0,0,0,0,0,0,0,0,0,0,0,0,0,0,0,0,0,0,0,0,0,0,0,0,0,0,0,0,0,0,0,0,0,0,0,0,0,0,0,0,0,0,0,0,0,0,0,0,0,0,0,0,0,-1.1559,-1.1559,0,-1.1604,-1.1605,-1.1605,-1.1574,-1.1572,-1.1571,-1.157,-1.1617,-1.1619,-1.1622,0,0,0,0,0,0,0,0,0,0,0,0,0,-1.1444,-1.1447,-1.1559,-1.1559,-1.156,-1.1604,-1.1605,-1.1606,-1.1574,-1.1572,-1.1571,-1.1569,-1.1616,-1.1619,-1.1622,0,0,0,0,0,0,0,0,0,0,0,0,0,-1.1492,-1.1447,-1.1559,-1.155,-1.1549,-1.1604,-1.1605,-1.1606,-1.1574,-1.1572,-1.157,-1.1568,-1.1615,-1.1619,-1.1622,-1.1689,0,0,-1.1634,-1.1636,0,0,0,0,0,0,0,0,-1.149,-1.1497,-1.155,-1.155,-1.155,-1.1581,-1.1582,-1.1634,-1.1575,-1.1565,-1.157,-1.1567,-1.1607,-1.1611,-1.1624,-1.1691,-1.1693,-1.1635,-1.1637,-1.1639,-1.164,0,0,0,0,0,0,0,-1.1486,-1.1494,-1.1577,-1.1551,-1.1551,-1.1543,-1.1548,-1.1591,-1.1597,-1.1566,-1.1563,-1.1569,-1.1606,-1.1621,-1.1625,-1.1694,-1.1634,-1.1638,-1.164,-1.1642,-1.1817,-1.182,0,0,0,0,0,0,-1.1484,-1.1492,-1.1575,-1.1578,-1.1514,-1.1547,-1.1552,-1.1573,-1.1597,-1.1598,-1.1571,-1.1568,-1.1615,-1.1621,-1.1627,-1.1706,-1.1638,-1.1642,-1.1644,-1.1815,-1.1818,-1.182,0,0,0,0,0,0,-1.1482,-1.1492,-1.1574,-1.1535,-1.1544,-1.1551,-1.1576,-1.1575,-1.159,-1.1601,-1.1602,-1.1585,-1.1614,-1.1621,-1.1674,-1.1707,-1.1644,-1.1647,-1.1812,-1.1816,-1.1819,-1.1866,0,0,0,0,0,0,-1.1478,-1.1491,-1.1517,-1.1535,-1.1547,-1.162,-1.1578,-1.1578,-1.1597,-1.1593,-1.1614,-1.1615,-1.1613,-1.1668,-1.1678,-1.1712,-1.165,-1.1809,-1.1814,-1.1818,-1.1862,-1.1871,-1.1879,0,0,0,0,0,-1.1474,-1.1528,-1.1518,-1.1528,-1.1579,-1.1622,-1.1629,-1.1624,-1.1599,-1.1625,-1.1632,-1.1615,-1.1702,-1.1674,-1.1684,-1.172,-1.1807,-1.1813,-1.1818,-1.1858,-1.1869,-1.1878,0,0,0,0,0,0,-1.1513,-1.153,-1.1519,-1.1581,-1.16,-1.1617,-1.1649,-1.1636,-1.1663,-1.1658,-1.1651,-1.1657,-1.1712,-1.1721,-1.1689,-1.1785,-1.1751,-1.1758,-1.1778,-1.1788,-1.1797,-1.1794,-1.1654,0,0,0,0,0,-1.1529,-1.1563,-1.1576,-1.1629,-1.1639,-1.1642,-1.1661,-1.1656,-1.1676,-1.1684,-1.1695,-1.1715,-1.1746,-1.1768,-1.1798,-1.1862,-1.1867,-1.1892,-1.1901,-1.1907,-1.1914,-1.1949,-1.1961,-1.1838,-1.1838,-1.1838,0,0,-1.1562,-1.1575,-1.1597,-1.1637,-1.1651,-1.1687,-1.165,-1.1689,-1.1715,-1.169,-1.174,-1.1749,-1.177,-1.1829,-1.1856,-1.1839,-1.1949,-1.1914,-1.192,-1.1923,-1.1956,-1.1967,-1.1978,-1.1841,-1.1841,-1.184,0,0,-1.164,-1.1653,-1.1699,-1.1714,-1.1736,-1.1738,-1.1749,-1.1767,-1.1772,-1.1822,-1.1804,-1.1835,-1.189,-1.1906,-1.1922,-1.2005,-1.199,-1.2015,-1.206,-1.2094,-1.2104,-1.2112,-1.2142,-1.2153,-1.2022,-1.2022,-1.2022,0,-1.1678,-1.173,-1.1724,-1.1764,-1.1782,-1.1761,-1.1807,-1.1822,-1.1853,-1.1866,-1.1846,-1.1915,-1.1928,-1.199,-1.201,-1.2023,-1.2036,-1.2013,-1.2103,-1.2111,-1.2119,-1.2148,-1.2159,-1.2025,-1.2024,-1.2024,-1.2024,0,-1.1776,-1.1813,-1.1847,-1.1877,-1.1899,-1.1942,-1.1942,-1.1965,-1.1957,-1.1961,-1.2012,-1.2027,-1.206,-1.2074,-1.2067,-1.2135,-1.2124,-1.2104,-1.2069,-1.2134,-1.2161,-1.2172,-1.2029,-1.2028,-1.2027,-1.2026,0,0,-1.1881,-1.1907,-1.192,-1.1933,-1.1956,-1.1984,-1.2026,-1.2057,-1.2077,-1.2099,-1.2134,-1.218,-1.2161,-1.2179,-1.2174,-1.2203,-1.2269,-1.218,-1.218,-1.2196,-1.2345,-1.236,-1.2373,-1.2258,-1.226,-1.2262,-1.2343,0,-1.1961,-1.2034,-1.2029,-1.2098,-1.2132,-1.2111,-1.2148,-1.2166,-1.217,-1.2199,-1.2204,-1.2237,-1.221,-1.222,-1.2248,-1.2255,-1.2299,-1.2249,-1.2291,-1.2293,-1.2287,-1.2387,-1.2404,-1.248,-1.2353,-1.2355,-1.2356,0,-1.2064,-1.2089,-1.2161,-1.2179,-1.2193,-1.2226,-1.2254,-1.2282,-1.2301,-1.2302,-1.2322,-1.2311,-1.2353,-1.2316,-1.2374,-1.234,-1.2357,-1.2363,-1.2365,-1.237,-1.2329,-1.2395,-1.2504,-1.2515,-1.2373,-1.2371,-1.237,0,-1.2134,-1.2186,-1.2236,-1.2248,-1.2269,-1.2293,-1.2303,-1.232,-1.2339,-1.2364,-1.2376,-1.2405,-1.2421,-1.2444,-1.2441,-1.2415,-1.25,-1.2463,-1.2502,-1.2502,-1.2522,-1.2521,-1.2636,-1.2532,-1.2531,-1.2531,-1.2531,0,-1.2224,-1.2269,-1.2267,-1.2298,-1.2348,-1.2342,-1.2391,-1.2398,-1.2414,-1.2445,-1.2429,-1.2459,-1.2454,-1.2484,-1.2482,-1.253,-1.2537,-1.2539,-1.2538,-1.2541,-1.2541,-1.2553,-1.2547,-1.2534,-1.2533,-1.2533,-1.2532,0,-1.2311,-1.2311,-1.2365,-1.238,-1.2385,-1.2421,-1.2435,-1.2464,-1.2466,-1.2506,-1.2515,-1.252,-1.2554,-1.2553,-1.2592,-1.2591,-1.265,-1.2643,-1.2644,-1.2643,-1.2682,-1.2678,-1.2809,-1.2825,-1.271,-1.2711,-1.2712,0,-1.2368,-1.2403,-1.2422,-1.2442,-1.2454,-1.2486,-1.2506,-1.25,-1.2521,-1.2545,-1.2571,-1.2604,-1.263,-1.2686,-1.2692,-1.2722,-1.2715,-1.2759,-1.272,-1.2721,-1.2717,-1.2715,-1.2718,-1.2767,-1.2768,-1.2769,-1.277,0,-1.2471,-1.247,-1.2498,-1.2528,-1.2551,-1.2574,-1.2594,-1.2612,-1.2608,-1.2632,-1.2667,-1.2687,-1.2727,-1.276,-1.2788,-1.2798,-1.2784,-1.2782,-1.2793,-1.2797,-1.2796,-1.2797,-1.2665,-1.2779,-1.2779,-1.2778,-1.2777,-1.2777,-1.2546,-1.2575,-1.2593,-1.2626,-1.2641,-1.266,-1.2688,-1.2694,-1.2723,-1.2755,-1.275,-1.2789,-1.2807,-1.2843,-1.2855,-1.2886,-1.287,-1.2886,-1.289,-1.2894,-1.2898,-1.279,-1.2891,-1.289,-1.289,-1.289,-1.289,0,-1.2648,-1.2658,-1.2688,-1.2718,-1.2743,-1.2727,-1.2749,-1.2772,-1.2806,-1.2824,-1.285,-1.289,-1.2921,-1.2929,-1.2959,-1.2982,-1.2976,-1.299,-1.2989,-1.2991,-1.291,-1.2898,-1.2994,-1.2994,-1.2994,-1.2994,-1.2994,-1.2994,-1.2704,-1.2753,-1.2754,-1.281,-1.282,-1.2859,-1.2872,-1.289,-1.2904,-1.295,-1.2976,-1.2981,-1.2995,-1.3026,-1.3054,-1.3055,-1.3067,-1.3084,-1.3083,-1.3007,-1.2997,-1.2987,-1.2976,-1.3086,-1.3087,-1.3161,-1.3162,-1.3163]},{"header":{"parameterUnit":"m.s-1","parameterCategory":1,"la1":30.2991,"la2":30.254,"lo1":-89.0895,"lo2":-89.0444,"dy":0.0017,"dx":0.0017,"nx":28,"ny":28,"refTime":"2026-01-02T09:00:00:Z","depth":0,"parameterNumber":3,"parameterNumberName":"V-component_of_WINDS"},"data":[0,0,0,0,0,0,0,0,0,0,0,0,0,0,0,0,0,0,0,0,0,0,0,0,0,0,0,0,0,0,0,0,0,0,0,0,0,0,0,0,0,0,0,0,0,0,0,0,0,0,0,0,0,0,0,0,0,0,-5.7278,-5.7279,0,-5.7397,-5.7398,-5.7399,-5.7349,-5.7346,-5.7343,-5.734,-5.7456,-5.7462,-5.7468,0,0,0,0,0,0,0,0,0,0,0,0,0,-5.7002,-5.7007,-5.7277,-5.7279,-5.728,-5.7396,-5.7398,-5.74,-5.7349,-5.7346,-5.7342,-5.7339,-5.7454,-5.7461,-5.7468,0,0,0,0,0,0,0,0,0,0,0,0,0,-5.7121,-5.7009,-5.7277,-5.727,-5.727,-5.7396,-5.7398,-5.74,-5.735,-5.7346,-5.7342,-5.7338,-5.7452,-5.7461,-5.7469,-5.7608,0,0,-5.7495,-5.7499,0,0,0,0,0,0,0,0,-5.7115,-5.7131,-5.7269,-5.727,-5.7271,-5.7354,-5.7343,-5.7469,-5.7351,-5.732,-5.734,-5.7335,-5.7425,-5.7436,-5.7467,-5.7613,-5.7618,-5.7496,-5.7501,-5.7505,-5.7507,0,0,0,0,0,0,0,-5.7106,-5.7126,-5.7324,-5.7271,-5.7272,-5.7259,-5.7271,-5.7367,-5.7395,-5.7322,-5.7319,-5.7334,-5.7425,-5.7459,-5.747,-5.762,-5.7496,-5.7504,-5.7509,-5.7512,-5.7887,-5.7891,0,0,0,0,0,0,-5.7099,-5.7119,-5.7321,-5.7328,-5.7181,-5.7267,-5.7281,-5.7331,-5.7394,-5.7399,-5.7337,-5.7331,-5.7447,-5.746,-5.7474,-5.7641,-5.7505,-5.7513,-5.7518,-5.7882,-5.7888,-5.7893,0,0,0,0,0,0,-5.7093,-5.7117,-5.7316,-5.7223,-5.7247,-5.7276,-5.7334,-5.7336,-5.737,-5.7405,-5.7409,-5.7368,-5.7444,-5.7461,-5.7576,-5.7644,-5.7517,-5.7525,-5.7876,-5.7884,-5.789,-5.7977,0,0,0,0,0,0,-5.7085,-5.7115,-5.7169,-5.7225,-5.7252,-5.7418,-5.7338,-5.7341,-5.7386,-5.7379,-5.7435,-5.744,-5.7442,-5.7563,-5.7584,-5.7654,-5.7532,-5.787,-5.788,-5.7888,-5.7968,-5.7986,-5.8002,0,0,0,0,0,-5.7076,-5.7187,-5.7172,-5.7197,-5.7321,-5.7422,-5.7437,-5.7439,-5.7392,-5.7446,-5.7468,-5.7438,-5.7634,-5.7575,-5.7598,-5.7672,-5.7866,-5.7877,-5.7887,-5.7961,-5.7983,-5.8001,0,0,0,0,0,0,-5.7137,-5.7194,-5.7178,-5.7312,-5.7363,-5.7413,-5.7481,-5.7462,-5.7526,-5.7516,-5.7513,-5.7527,-5.7645,-5.7669,-5.7603,-5.781,-5.7742,-5.7758,-5.779,-5.7811,-5.7828,-5.7819,-5.7539,0,0,0,0,0,-5.7166,-5.7245,-5.729,-5.7403,-5.743,-5.7452,-5.7495,-5.7493,-5.7544,-5.7565,-5.7596,-5.7645,-5.7718,-5.7766,-5.7834,-5.7971,-5.7983,-5.8033,-5.805,-5.8064,-5.8078,-5.8153,-5.8176,-5.7928,-5.7928,-5.7928,0,0,-5.7227,-5.7268,-5.7317,-5.7417,-5.7456,-5.7537,-5.747,-5.7557,-5.7617,-5.7577,-5.7688,-5.7713,-5.7768,-5.7895,-5.7952,-5.7919,-5.8149,-5.8078,-5.8088,-5.8095,-5.8167,-5.819,-5.8211,-5.7936,-5.7934,-5.7933,0,0,-5.7379,-5.7418,-5.7518,-5.7559,-5.762,-5.7634,-5.7658,-5.7712,-5.7728,-5.7839,-5.7812,-5.7882,-5.8007,-5.8048,-5.8085,-5.8255,-5.823,-5.8277,-5.8365,-5.8439,-5.8458,-5.8476,-5.8537,-5.8559,-5.8291,-5.8291,-5.8291,0,-5.7446,-5.7568,-5.757,-5.7662,-5.7706,-5.7677,-5.7777,-5.7816,-5.7896,-5.7927,-5.7889,-5.8047,-5.8082,-5.8218,-5.826,-5.8291,-5.8318,-5.8271,-5.8456,-5.8473,-5.8489,-5.8548,-5.8571,-5.8297,-5.8296,-5.8295,-5.8295,0,-5.7648,-5.7734,-5.7806,-5.7888,-5.794,-5.8035,-5.805,-5.8103,-5.8096,-5.8114,-5.8228,-5.8269,-5.8346,-5.8378,-5.8371,-5.8515,-5.8492,-5.8455,-5.8387,-5.8518,-5.8573,-5.8596,-5.8304,-5.8302,-5.8301,-5.8299,0,0,-5.7841,-5.7924,-5.7951,-5.7988,-5.8054,-5.8119,-5.8213,-5.8291,-5.8337,-5.8393,-5.8471,-5.8579,-5.8546,-5.8588,-5.8585,-5.865,-5.8783,-5.8605,-5.8606,-5.8637,-5.8944,-5.8972,-5.8998,-5.8767,-5.8771,-5.8774,-5.894,0,-5.7999,-5.8166,-5.8172,-5.8324,-5.8403,-5.8377,-5.8459,-5.8508,-5.8527,-5.8595,-5.8615,-5.8692,-5.8642,-5.8668,-5.8731,-5.8754,-5.8845,-5.8741,-5.8839,-5.8842,-5.8827,-5.9027,-5.9057,-5.9211,-5.8961,-5.8965,-5.8968,0,-5.8206,-5.8272,-5.8433,-5.849,-5.8523,-5.8597,-5.867,-5.8736,-5.879,-5.88,-5.8849,-5.8837,-5.8931,-5.886,-5.899,-5.892,-5.896,-5.8977,-5.8983,-5.8993,-5.8913,-5.9042,-5.926,-5.9284,-5.9001,-5.8999,-5.8996,0,-5.8332,-5.846,-5.8574,-5.8606,-5.8675,-5.8728,-5.8758,-5.8809,-5.8856,-5.8919,-5.895,-5.9022,-5.9062,-5.9117,-5.9125,-5.9072,-5.9256,-5.9185,-5.9266,-5.9266,-5.9306,-5.9303,-5.9534,-5.933,-5.933,-5.933,-5.9329,0,-5.8508,-5.8607,-5.8632,-5.8702,-5.8813,-5.8817,-5.8926,-5.8953,-5.8998,-5.9072,-5.9053,-5.9122,-5.9127,-5.9198,-5.9204,-5.9311,-5.9329,-5.9338,-5.9339,-5.9341,-5.934,-5.9367,-5.9357,-5.9336,-5.9334,-5.9333,-5.9332,0,-5.8667,-5.8688,-5.881,-5.8866,-5.8883,-5.8962,-5.9009,-5.9076,-5.9093,-5.9187,-5.9209,-5.9236,-5.9319,-5.9332,-5.9427,-5.9432,-5.9561,-5.955,-5.9543,-5.9542,-5.9622,-5.9615,-5.9879,-5.9914,-5.9687,-5.9689,-5.9691,0,-5.8779,-5.8855,-5.8921,-5.8971,-5.9005,-5.9084,-5.9133,-5.9141,-5.9192,-5.9262,-5.9319,-5.94,-5.9466,-5.9598,-5.9625,-5.9699,-5.969,-5.9777,-5.97,-5.97,-5.9692,-5.9688,-5.9696,-5.9792,-5.9794,-5.9796,-5.9798,0,-5.8975,-5.8982,-5.9055,-5.9132,-5.9192,-5.9253,-5.931,-5.935,-5.9365,-5.9424,-5.951,-5.9561,-5.966,-5.9741,-5.9814,-5.9843,-5.9824,-5.9822,-5.9845,-5.9848,-5.9841,-5.9847,-5.9585,-5.9816,-5.9814,-5.9813,-5.9812,-5.9811,-5.9114,-5.9182,-5.924,-5.9322,-5.9366,-5.9421,-5.9487,-5.9514,-5.9587,-5.967,-5.967,-5.9764,-5.9817,-5.9914,-5.9948,-6.0021,-5.9992,-6.0025,-6.0033,-6.0041,-6.005,-5.983,-6.0034,-6.0033,-6.0033,-6.0032,-6.0032,0,-5.931,-5.9347,-5.9422,-5.9505,-5.957,-5.9548,-5.961,-5.9665,-5.9749,-5.9802,-5.9868,-5.9966,-6.0045,-6.0079,-6.0156,-6.0207,-6.02,-6.0227,-6.0224,-6.0231,-6.007,-6.0043,-6.0232,-6.0232,-6.0232,-6.0232,-6.0232,-6.0232,-5.942,-5.9534,-5.9548,-5.9684,-5.9719,-5.9813,-5.9851,-5.9901,-5.9943,-6.0056,-6.0122,-6.0145,-6.019,-6.027,-6.0341,-6.0349,-6.0378,-6.041,-6.0414,-6.0262,-6.0242,-6.0223,-6.0198,-6.0416,-6.0416,-6.0569,-6.057,-6.0571]}]]